Home   Weather   Nordkirchen   Past weeks

Flag for Germany Past Weather in Nordkirchen, North Rhine-Westphalia, Germany — Yesterday and Last 2 Weeks

Now
43 °F

Clear.


Feels Like: 39 °F
Forecast: 36 / 56 °F
Wind: 6 mph from West

Location: Dortmund / Wickede

Current Time: Apr 23, 2017 at 9:49:33 pm

Latest Report: Apr 23, 2017 at 8:50 pm


Visibility: 10 mi

Pressure: 30.21 "Hg

Humidity: 66%

Dew Point: 32 °F

Location of NordkirchenLocation

Past Weather in Nordkirchen — Graph

°F

Nordkirchen Temperature Yesterday

Maximum temperature yesterday: 48 °F (at 12:50 pm)
Minimum temperature yesterday: 41 °F (at 5:20 am)
Average temperature yesterday: 44 °F

High & Low Weather Summary for the Past Weeks

 TemperatureHumidityPressure
High73 °F (Apr 9, 5:20 pm)93% (Apr 9, 5:20 am)30.60 "Hg (Apr 9, 5:20 am)
Low25 °F (Apr 20, 5:20 am)28% (Apr 20, 3:20 pm)29.86 "Hg (Apr 15, 6:50 am)
Average46 °F65%30.18 "Hg
* Reported Apr 8 8:20 pm — Apr 23 8:20 pm, Nordkirchen, Weather by CustomWeather, © 2017

Note: Actual official high and low records may vary slightly from our data, if they occured in-between our weather recording intervals... More about our weather records

Advertising

Nordkirchen Weather History for the Previous 24 Hours

Scroll right to see more
 ConditionsComfort  
Time TempWeatherWind HumidityBarometerVisibility
8:20 pm
Sun, Apr 23
41 °FSunny.7 mph70%30.21 "Hg10 mi
7:50 pm43 °FSunny.7 mph71%30.21 "Hg10 mi
7:20 pm45 °FPassing clouds.7 mph66%30.24 "HgN/A
6:50 pm45 °FSunny.9 mph66%30.24 "Hg10 mi
6:20 pm45 °FSunny.9 mph61%30.24 "Hg10 mi
5:50 pm45 °FScattered showers. Partly sunny.13 mph61%30.21 "HgN/A
5:20 pm48 °FPassing clouds.12 mph62%30.24 "HgN/A
4:50 pm45 °FSunny.13 mph66%30.24 "Hg10 mi
4:20 pm46 °FScattered showers. Clear.12 mph66%30.24 "HgN/A
3:50 pm45 °FScattered showers. Partly sunny.12 mph71%30.24 "HgN/A
3:20 pm45 °FScattered showers. Partly sunny.9 mph66%30.24 "HgN/A
2:50 pm43 °FScattered showers. Clear.13 mph71%30.24 "HgN/A
2:20 pm41 °FScattered showers. Clear.8 mph76%30.27 "HgN/A
1:50 pm41 °FSprinkles. Partly sunny.18 mph70%30.27 "HgN/A
1:20 pm45 °FPartly sunny.12 mph57%30.24 "HgN/A
12:50 pm46 °FScattered clouds.12 mph57%30.24 "HgN/A
12:20 pm45 °FScattered clouds.12 mph57%30.27 "HgN/A
11:50 am45 °FScattered clouds.14 mph57%30.27 "HgN/A
11:20 am45 °FScattered clouds.10 mph57%30.27 "HgN/A
10:50 am45 °FScattered clouds.10 mph53%30.27 "HgN/A
10:20 am43 °FPassing clouds.10 mph61%30.27 "HgN/A
9:50 am43 °FPassing clouds.9 mph61%30.27 "HgN/A
9:20 am41 °FScattered clouds.10 mph70%30.27 "HgN/A
8:50 am39 °FSunny.8 mph75%30.27 "Hg10 mi
8:20 am39 °FPartly sunny.8 mph75%30.24 "HgN/A
7:50 am37 °FBroken clouds.8 mph81%30.24 "HgN/A
7:20 am37 °FScattered clouds.8 mph81%30.24 "HgN/A
6:50 am37 °FPartly sunny.8 mph81%30.24 "HgN/A
6:20 am37 °FSunny.8 mph81%30.24 "Hg10 mi
5:50 am37 °FPartly cloudy.7 mph81%30.24 "HgN/A
5:20 am37 °FPartly cloudy.7 mph81%30.24 "HgN/A
9:50 pm
Sat, Apr 22
41 °FPassing clouds.9 mph66%30.21 "HgN/A
9:20 pm43 °FClear.15 mph57%30.21 "Hg10 mi
Weather by CustomWeather, © 2017

See weather overviewHow to use our weather pages